DAL4 KSLC-KGPI

Flight info

Callsign DAL4
Flight time 1h 19m
Altitude 40000
Route RUGGD3 HOLTR FCA
Aircraft MD11/H-SDE1E2E3FGHIJ2J3J4J5M1RWXY/LB1D1

Departure

Time 2026-04-24 04:09
Airport Salt Lake City International Airport (KSLC)

Arrival

Time 2026-04-24 05:29
Airport Glacier Park International Airport (KGPI)
Time Latitude Longitude Altitude Speed Heading
2026-04-24 03:29 40.78662 -111.97943 4238 ft 0 kts 174°
2026-04-24 03:57 40.78664 -111.97943 4238 ft 3 kts 174°
2026-04-24 03:57 40.78683 -111.97945 4237 ft 3 kts 174°
2026-04-24 03:58 40.78702 -111.97948 4237 ft 3 kts 175°
2026-04-24 03:58 40.78711 -111.97950 4236 ft 0 kts 202°
2026-04-24 03:58 40.78744 -111.97952 4238 ft 0 kts 88°
2026-04-24 04:02 40.78744 -111.97936 4230 ft 7 kts 87°
2026-04-24 04:02 40.78747 -111.97890 4238 ft 0 kts 86°
2026-04-24 04:03 40.78750 -111.97818 4238 ft 13 kts 86°
2026-04-24 04:03 40.78756 -111.97730 4237 ft 6 kts 81°
2026-04-24 04:03 40.78778 -111.97696 4237 ft 8 kts 33°
2026-04-24 04:04 40.78867 -111.97696 4239 ft 19 kts 356°
2026-04-24 04:04 40.79032 -111.97714 4239 ft 26 kts 354°
2026-04-24 04:04 40.79208 -111.97735 4238 ft 25 kts 354°
2026-04-24 04:04 40.79375 -111.97756 4237 ft 23 kts 354°
2026-04-24 04:05 40.79533 -111.97775 4237 ft 22 kts 355°
2026-04-24 04:05 40.79680 -111.97791 4238 ft 21 kts 356°
2026-04-24 04:05 40.79840 -111.97809 4238 ft 26 kts 354°
2026-04-24 04:05 40.80039 -111.97832 4239 ft 32 kts 355°
2026-04-24 04:06 40.80239 -111.97848 4239 ft 27 kts
2026-04-24 04:06 40.80388 -111.97820 4239 ft 19 kts
2026-04-24 04:06 40.80513 -111.97833 4238 ft 18 kts 355°
2026-04-24 04:06 40.80631 -111.97848 4238 ft 16 kts 355°
2026-04-24 04:07 40.80701 -111.97855 4238 ft 6 kts 357°
2026-04-24 04:07 40.80703 -111.97855 4238 ft 0 kts 357°
2026-04-24 04:08 40.80704 -111.97855 4238 ft 1 kts 357°
2026-04-24 04:08 40.80737 -111.97833 4238 ft 10 kts 48°
2026-04-24 04:08 40.80740 -111.97747 4236 ft 9 kts 114°
2026-04-24 04:08 40.80679 -111.97693 4236 ft 14 kts 168°
2026-04-24 04:09 40.80354 -111.97650 4239 ft 90 kts 176°
2026-04-24 04:09 40.79505 -111.97551 4243 ft 157 kts 174°
2026-04-24 04:09 40.78714 -111.97460 4618 ft 166 kts 175°
2026-04-24 04:09 40.77528 -111.97362 5458 ft 178 kts 182°
2026-04-24 04:10 40.76311 -111.97791 6321 ft 187 kts 211°
2026-04-24 04:10 40.75440 -111.99132 6997 ft 208 kts 243°
2026-04-24 04:10 40.75230 -112.01852 7339 ft 245 kts 283°
2026-04-24 04:11 40.76709 -112.05026 8291 ft 245 kts 304°
2026-04-24 04:11 40.77680 -112.06755 9098 ft 237 kts 305°
2026-04-24 04:11 40.78587 -112.08282 11038 ft 188 kts 306°
2026-04-24 04:11 40.79461 -112.09716 11812 ft 210 kts 312°
2026-04-24 04:12 40.80720 -112.10672 12833 ft 217 kts 342°
2026-04-24 04:12 40.82255 -112.10589 13815 ft 231 kts 12°
2026-04-24 04:12 40.83666 -112.09441 14589 ft 247 kts 36°
2026-04-24 04:12 40.84909 -112.07832 15353 ft 253 kts 38°
2026-04-24 04:13 40.86181 -112.06239 16064 ft 257 kts 33°
2026-04-24 04:13 40.87567 -112.04754 16817 ft 258 kts 28°
2026-04-24 04:13 40.89034 -112.03394 17577 ft 259 kts 24°
2026-04-24 04:13 40.90608 -112.02095 17835 ft 282 kts 22°
2026-04-24 04:14 40.92399 -112.00751 18010 ft 307 kts 21°
2026-04-24 04:14 40.94366 -111.99361 18164 ft 333 kts 20°
2026-04-24 04:14 40.96453 -111.97936 18776 ft 341 kts 20°
2026-04-24 04:14 40.98580 -111.96514 19526 ft 344 kts 19°
2026-04-24 04:15 41.00728 -111.95103 20295 ft 347 kts 19°
2026-04-24 04:15 41.02909 -111.93690 21045 ft 350 kts 19°
2026-04-24 04:15 41.05108 -111.92279 21724 ft 355 kts 19°
2026-04-24 04:15 41.07343 -111.90851 22118 ft 357 kts 19°
2026-04-24 04:16 41.09583 -111.89421 22937 ft 358 kts 18°
2026-04-24 04:16 41.11852 -111.87974 23479 ft 368 kts 18°
2026-04-24 04:16 41.14234 -111.86469 23594 ft 386 kts 18°
2026-04-24 04:16 41.16693 -111.84917 23708 ft 400 kts 18°
2026-04-24 04:17 41.19247 -111.83296 23833 ft 413 kts 19°
2026-04-24 04:17 41.21834 -111.81639 24141 ft 422 kts 19°
2026-04-24 04:17 41.24516 -111.79915 24731 ft 426 kts 19°
2026-04-24 04:17 41.27201 -111.78190 25245 ft 432 kts 19°
2026-04-24 04:18 41.29888 -111.76465 25845 ft 435 kts 19°
2026-04-24 04:18 41.32622 -111.74709 26503 ft 439 kts 19°
2026-04-24 04:18 41.35381 -111.72935 27240 ft 439 kts 19°
2026-04-24 04:18 41.38154 -111.71255 28045 ft 434 kts 15°
2026-04-24 04:19 41.40975 -111.69907 28890 ft 429 kts 12°
2026-04-24 04:19 41.43658 -111.68808 31063 ft 377 kts 10°
2026-04-24 04:19 41.46183 -111.67820 31572 ft 382 kts
2026-04-24 04:19 41.48760 -111.66851 31745 ft 389 kts
2026-04-24 04:20 41.51390 -111.65859 31874 ft 396 kts
2026-04-24 04:20 41.54060 -111.64837 32119 ft 401 kts 10°
2026-04-24 04:20 41.56756 -111.63788 32371 ft 407 kts 10°
2026-04-24 04:20 41.59504 -111.62711 32514 ft 416 kts 10°
2026-04-24 04:21 41.62317 -111.61604 32652 ft 426 kts 10°
2026-04-24 04:21 41.65195 -111.60466 32798 ft 436 kts 11°
2026-04-24 04:21 41.68141 -111.59299 32932 ft 447 kts 11°
2026-04-24 04:21 41.71126 -111.58114 33070 ft 458 kts 11°
2026-04-24 04:22 41.74215 -111.56885 33257 ft 467 kts 11°
2026-04-24 04:22 41.77343 -111.55640 33678 ft 469 kts 10°
2026-04-24 04:22 41.80506 -111.54581 34041 ft 468 kts
2026-04-24 04:22 41.83717 -111.53743 34287 ft 470 kts
2026-04-24 04:23 41.86944 -111.53016 34481 ft 472 kts
2026-04-24 04:23 41.90192 -111.52321 34685 ft 474 kts
2026-04-24 04:23 41.93460 -111.51620 34861 ft 476 kts
2026-04-24 04:23 41.96738 -111.50904 35066 ft 478 kts
2026-04-24 04:24 42.00007 -111.50173 35327 ft 476 kts
2026-04-24 04:24 42.03245 -111.49440 35437 ft 478 kts
2026-04-24 04:24 42.06516 -111.48693 35811 ft 468 kts
2026-04-24 04:24 42.09712 -111.47954 36328 ft 468 kts
2026-04-24 04:25 42.12929 -111.47218 36535 ft 470 kts
2026-04-24 04:25 42.16177 -111.46478 36690 ft 473 kts
2026-04-24 04:25 42.19424 -111.45736 36900 ft 475 kts
2026-04-24 04:25 42.22683 -111.44990 37035 ft 477 kts
2026-04-24 04:26 42.25973 -111.44235 37171 ft 479 kts
2026-04-24 04:26 42.29265 -111.43482 37302 ft 479 kts
2026-04-24 04:26 42.32558 -111.43116 37438 ft 474 kts 355°
2026-04-24 04:26 42.35830 -111.43485 37566 ft 469 kts 346°
2026-04-24 04:27 42.38968 -111.44574 37744 ft 464 kts 336°
2026-04-24 04:27 42.41961 -111.46206 37883 ft 462 kts 332°
2026-04-24 04:27 42.44869 -111.47934 38027 ft 462 kts 333°
2026-04-24 04:27 42.47854 -111.49594 38153 ft 464 kts 335°
2026-04-24 04:28 42.50878 -111.51112 38307 ft 465 kts 337°
2026-04-24 04:28 42.53950 -111.52524 38431 ft 466 kts 338°
2026-04-24 04:28 42.57042 -111.53865 38609 ft 466 kts 339°
2026-04-24 04:28 42.60137 -111.55168 38725 ft 465 kts 339°
2026-04-24 04:29 42.63230 -111.56459 38828 ft 465 kts 339°
2026-04-24 04:29 42.66321 -111.57750 38938 ft 464 kts 339°
2026-04-24 04:29 42.69408 -111.59054 39048 ft 464 kts 339°
2026-04-24 04:29 42.72474 -111.60404 39150 ft 463 kts 338°
2026-04-24 04:30 42.75518 -111.61821 39266 ft 462 kts 337°
2026-04-24 04:30 42.78562 -111.63266 39379 ft 462 kts 337°
2026-04-24 04:30 42.81590 -111.64705 39489 ft 462 kts 337°
2026-04-24 04:30 42.84632 -111.66144 39599 ft 462 kts 337°
2026-04-24 04:31 42.87661 -111.67569 39714 ft 461 kts 337°
2026-04-24 04:31 42.90658 -111.68972 39944 ft 459 kts 337°
2026-04-24 04:31 42.93703 -111.70395 39958 ft 447 kts 337°
2026-04-24 04:31 42.96566 -111.71727 39969 ft 439 kts 336°
2026-04-24 04:32 43.02431 -111.74486 39979 ft 452 kts 336°
2026-04-24 04:32 43.08436 -111.77315 40000 ft 459 kts 337°
2026-04-24 04:33 43.14516 -111.80177 39994 ft 464 kts 337°
2026-04-24 04:33 43.20635 -111.83060 40004 ft 464 kts 337°
2026-04-24 04:34 43.26695 -111.85924 40019 ft 463 kts 337°
2026-04-24 04:34 43.32769 -111.88798 40016 ft 458 kts 337°
2026-04-24 04:35 43.38790 -111.91657 40014 ft 457 kts 337°
2026-04-24 04:35 43.44802 -111.94519 40017 ft 456 kts 336°
2026-04-24 04:36 43.50800 -111.97389 40009 ft 454 kts 336°
2026-04-24 04:36 43.56767 -112.00256 40008 ft 454 kts 336°
2026-04-24 04:37 43.62682 -112.03093 40019 ft 449 kts 336°
2026-04-24 04:37 43.68623 -112.05945 40007 ft 452 kts 336°
2026-04-24 04:38 43.74573 -112.08807 40005 ft 453 kts 336°
2026-04-24 04:38 43.80508 -112.11666 39996 ft 451 kts 336°
2026-04-24 04:39 43.86429 -112.14523 39992 ft 449 kts 336°
2026-04-24 04:39 43.92339 -112.17383 39995 ft 449 kts 336°
2026-04-24 04:40 43.98229 -112.20240 39984 ft 449 kts 336°
2026-04-24 04:40 44.04129 -112.23107 39974 ft 448 kts 336°
2026-04-24 04:41 44.10015 -112.25974 39972 ft 448 kts 336°
2026-04-24 04:41 44.15907 -112.28849 39979 ft 449 kts 336°
2026-04-24 04:42 44.21843 -112.31755 39990 ft 454 kts 336°
2026-04-24 04:42 44.27776 -112.34667 39994 ft 454 kts 336°
2026-04-24 04:43 44.33742 -112.37614 40004 ft 454 kts 336°
2026-04-24 04:43 44.39734 -112.40573 40016 ft 458 kts 336°
2026-04-24 04:44 44.45751 -112.43541 40017 ft 458 kts 336°
2026-04-24 04:44 44.51756 -112.46508 40033 ft 457 kts 336°
2026-04-24 04:45 44.57761 -112.49482 40033 ft 457 kts 336°
2026-04-24 04:45 44.63755 -112.52459 40039 ft 457 kts 336°
2026-04-24 04:46 44.69707 -112.55421 40056 ft 456 kts 336°
2026-04-24 04:46 44.75699 -112.58410 40044 ft 457 kts 336°
2026-04-24 04:47 44.81694 -112.61406 40037 ft 457 kts 336°
2026-04-24 04:47 44.87683 -112.64406 40057 ft 456 kts 336°
2026-04-24 04:48 44.93682 -112.67419 40041 ft 458 kts 336°
2026-04-24 04:48 44.99683 -112.70438 40035 ft 458 kts 336°
2026-04-24 04:49 45.05687 -112.73468 40022 ft 457 kts 336°
2026-04-24 04:49 45.11663 -112.76508 40021 ft 455 kts 336°
2026-04-24 04:50 45.17601 -112.79525 40017 ft 455 kts 336°
2026-04-24 04:50 45.23568 -112.82557 40016 ft 455 kts 336°
2026-04-24 04:51 45.29541 -112.85595 40021 ft 455 kts 336°
2026-04-24 04:51 45.35474 -112.88621 40025 ft 455 kts 336°
2026-04-24 04:52 45.41436 -112.91667 40028 ft 455 kts 336°
2026-04-24 04:52 45.44371 -112.93166 39739 ft 442 kts 336°
2026-04-24 04:52 45.47282 -112.94657 38913 ft 441 kts 336°
2026-04-24 04:53 45.50174 -112.96140 38575 ft 444 kts 336°
2026-04-24 04:53 45.53074 -112.97632 38183 ft 441 kts 336°
2026-04-24 04:53 45.55935 -112.99103 38072 ft 437 kts 336°
2026-04-24 04:53 45.58791 -113.00572 38049 ft 436 kts 336°
2026-04-24 04:54 45.64497 -113.03517 38074 ft 435 kts 336°
2026-04-24 04:54 45.70193 -113.06462 38062 ft 436 kts 336°
2026-04-24 04:55 45.75903 -113.09419 38069 ft 437 kts 336°
2026-04-24 04:55 45.81625 -113.12388 38065 ft 437 kts 336°
2026-04-24 04:56 45.87339 -113.15377 38076 ft 437 kts 336°
2026-04-24 04:56 45.92075 -113.17858 38074 ft 436 kts 336°
2026-04-24 04:57 45.97780 -113.20843 38071 ft 436 kts 336°
2026-04-24 04:57 46.03493 -113.23834 38087 ft 436 kts 336°
2026-04-24 04:58 46.09184 -113.26817 38082 ft 435 kts 336°
2026-04-24 04:58 46.14870 -113.29807 38099 ft 435 kts 337°
2026-04-24 04:59 46.20583 -113.32816 38084 ft 437 kts 337°
2026-04-24 04:59 46.26297 -113.35834 38086 ft 437 kts 337°
2026-04-24 05:00 46.32008 -113.38856 38086 ft 436 kts 337°
2026-04-24 05:00 46.37660 -113.41853 38089 ft 436 kts 336°
2026-04-24 05:01 46.43373 -113.44890 38085 ft 436 kts 336°
2026-04-24 05:01 46.49075 -113.47927 38090 ft 437 kts 336°
2026-04-24 05:02 46.54777 -113.50971 38093 ft 435 kts 336°
2026-04-24 05:02 46.57574 -113.52464 38088 ft 423 kts 336°
2026-04-24 05:02 46.60333 -113.53939 38098 ft 421 kts 336°
2026-04-24 05:03 46.65817 -113.56900 38092 ft 420 kts 336°
2026-04-24 05:03 46.71288 -113.59858 38103 ft 417 kts 336°
2026-04-24 05:04 46.76703 -113.62778 38093 ft 413 kts 336°
2026-04-24 05:04 46.82094 -113.65689 38088 ft 413 kts 337°
2026-04-24 05:05 46.87478 -113.68603 37650 ft 417 kts 337°
2026-04-24 05:05 46.90217 -113.70086 37013 ft 411 kts 337°
2026-04-24 05:05 46.92880 -113.71527 36403 ft 405 kts 337°
2026-04-24 05:06 46.95468 -113.72930 35809 ft 398 kts 336°
2026-04-24 05:06 46.98040 -113.74326 35209 ft 392 kts 336°
2026-04-24 05:06 47.00572 -113.75702 34676 ft 385 kts 336°
2026-04-24 05:06 47.03071 -113.77063 34109 ft 379 kts 336°
2026-04-24 05:07 47.05523 -113.78399 33452 ft 373 kts 336°
2026-04-24 05:07 47.07940 -113.79718 32804 ft 367 kts 336°
2026-04-24 05:07 47.10314 -113.81015 32173 ft 361 kts 336°
2026-04-24 05:07 47.12649 -113.82291 31575 ft 355 kts 336°
2026-04-24 05:08 47.14953 -113.83552 30972 ft 350 kts 336°
2026-04-24 05:08 47.17218 -113.84792 30365 ft 346 kts 336°
2026-04-24 05:08 47.19460 -113.86021 29619 ft 343 kts 336°
2026-04-24 05:08 47.21661 -113.87231 28862 ft 340 kts 336°
2026-04-24 05:09 47.23869 -113.88445 28098 ft 337 kts 336°
2026-04-24 05:09 47.26059 -113.89650 27385 ft 335 kts 336°
2026-04-24 05:09 47.28240 -113.90850 26669 ft 333 kts 336°
2026-04-24 05:09 47.30404 -113.92044 25981 ft 332 kts 336°
2026-04-24 05:10 47.32567 -113.93235 25299 ft 331 kts 336°
2026-04-24 05:10 47.34757 -113.94446 24638 ft 349 kts 336°
2026-04-24 05:10 47.37087 -113.95742 23992 ft 363 kts 336°
2026-04-24 05:10 47.39455 -113.97056 23269 ft 362 kts 336°
2026-04-24 05:11 47.41802 -113.98360 22517 ft 360 kts 336°
2026-04-24 05:11 47.44134 -113.99659 22072 ft 361 kts 336°
2026-04-24 05:11 47.46484 -114.00968 21676 ft 360 kts 336°
2026-04-24 05:11 47.48822 -114.02268 21270 ft 359 kts 337°
2026-04-24 05:12 47.51154 -114.03564 21134 ft 357 kts 337°
2026-04-24 05:12 47.53484 -114.04860 21131 ft 357 kts 337°
2026-04-24 05:12 47.55763 -114.06127 21124 ft 346 kts 337°
2026-04-24 05:12 47.58014 -114.07379 21126 ft 345 kts 337°
2026-04-24 05:13 47.62485 -114.09875 21127 ft 345 kts 337°
2026-04-24 05:13 47.64757 -114.11071 21126 ft 346 kts 340°
2026-04-24 05:13 47.67063 -114.12115 21102 ft 344 kts 341°
2026-04-24 05:14 47.69346 -114.13087 20514 ft 342 kts 342°
2026-04-24 05:14 47.71652 -114.14050 19928 ft 344 kts 342°
2026-04-24 05:14 47.73950 -114.15006 19370 ft 342 kts 342°
2026-04-24 05:14 47.76236 -114.15960 18818 ft 340 kts 342°
2026-04-24 05:15 47.78507 -114.16912 18248 ft 338 kts 342°
2026-04-24 05:15 47.80764 -114.17860 17627 ft 335 kts 342°
2026-04-24 05:15 47.82997 -114.18801 17025 ft 331 kts 343°
2026-04-24 05:15 47.85193 -114.19729 16403 ft 326 kts 343°
2026-04-24 05:16 47.87362 -114.20646 15763 ft 322 kts 343°
2026-04-24 05:16 47.89505 -114.21554 15146 ft 318 kts 344°
2026-04-24 05:16 47.91613 -114.22448 14809 ft 307 kts 344°
2026-04-24 05:16 47.93609 -114.23294 14605 ft 293 kts 344°
2026-04-24 05:17 47.95554 -114.24120 14186 ft 288 kts 344°
2026-04-24 05:17 47.97456 -114.24928 13649 ft 286 kts 345°
2026-04-24 05:17 47.99365 -114.25739 13105 ft 285 kts 345°
2026-04-24 05:17 48.01269 -114.26549 12572 ft 283 kts 345°
2026-04-24 05:18 48.03152 -114.27352 12144 ft 281 kts 346°
2026-04-24 05:18 48.05002 -114.28140 11754 ft 279 kts 346°
2026-04-24 05:18 48.06859 -114.28932 11358 ft 277 kts 346°
2026-04-24 05:18 48.08703 -114.29720 11136 ft 274 kts 346°
2026-04-24 05:19 48.10543 -114.30505 11135 ft 275 kts 346°
2026-04-24 05:19 48.12383 -114.31290 11125 ft 276 kts 346°
2026-04-24 05:19 48.14230 -114.32080 11126 ft 276 kts 346°
2026-04-24 05:19 48.16074 -114.32868 11120 ft 275 kts 346°
2026-04-24 05:20 48.17917 -114.33658 11114 ft 275 kts 346°
2026-04-24 05:20 48.19759 -114.34447 11110 ft 275 kts 346°
2026-04-24 05:20 48.21601 -114.35238 11107 ft 276 kts 346°
2026-04-24 05:20 48.23445 -114.36029 11097 ft 275 kts 346°
2026-04-24 05:21 48.25294 -114.36823 10858 ft 277 kts 346°
2026-04-24 05:21 48.27133 -114.37614 10549 ft 274 kts 346°
2026-04-24 05:21 48.28966 -114.38401 10164 ft 273 kts 346°
2026-04-24 05:21 48.30788 -114.39186 9759 ft 272 kts 346°
2026-04-24 05:22 48.32599 -114.39967 9352 ft 268 kts 346°
2026-04-24 05:22 48.34332 -114.40717 8933 ft 253 kts 346°
2026-04-24 05:22 48.36014 -114.41443 8534 ft 252 kts 346°
2026-04-24 05:22 48.37693 -114.42138 8229 ft 246 kts 349°
2026-04-24 05:23 48.39394 -114.42367 7925 ft 245 kts
2026-04-24 05:23 48.40963 -114.41702 7562 ft 224 kts 28°
2026-04-24 05:23 48.42149 -114.40295 7188 ft 214 kts 49°
2026-04-24 05:23 48.42872 -114.38447 7087 ft 204 kts 64°
2026-04-24 05:24 48.43424 -114.36504 6905 ft 196 kts 66°
2026-04-24 05:24 48.43904 -114.34579 6509 ft 200 kts 71°
2026-04-24 05:24 48.44231 -114.32537 6424 ft 202 kts 79°
2026-04-24 05:24 48.44344 -114.30429 6414 ft 203 kts 89°
2026-04-24 05:25 48.44224 -114.28300 6417 ft 205 kts 98°
2026-04-24 05:25 48.43870 -114.26211 6291 ft 206 kts 108°
2026-04-24 05:25 48.43306 -114.24298 6104 ft 191 kts 117°
2026-04-24 05:25 48.42661 -114.22587 5901 ft 186 kts 118°
2026-04-24 05:26 48.41926 -114.21005 5766 ft 182 kts 129°
2026-04-24 05:26 48.40953 -114.19765 5432 ft 181 kts 148°
2026-04-24 05:26 48.39857 -114.19065 4833 ft 168 kts 166°
2026-04-24 05:26 48.38733 -114.18896 4251 ft 153 kts 183°
2026-04-24 05:27 48.37709 -114.19154 3826 ft 145 kts 198°
2026-04-24 05:27 48.36797 -114.19686 3712 ft 143 kts 206°
2026-04-24 05:27 48.35917 -114.20415 3670 ft 148 kts 213°
2026-04-24 05:27 48.35044 -114.21356 3671 ft 154 kts 218°
2026-04-24 05:28 48.34161 -114.22317 3608 ft 153 kts 216°
2026-04-24 05:28 48.33311 -114.23207 3381 ft 147 kts 216°
2026-04-24 05:28 48.32473 -114.24072 3141 ft 144 kts 217°
2026-04-24 05:28 48.31680 -114.24888 2988 ft 128 kts 215°
2026-04-24 05:29 48.31102 -114.25491 2985 ft 73 kts 215°
2026-04-24 05:29 48.30846 -114.25755 2982 ft 19 kts 214°
2026-04-24 05:29 48.30702 -114.25901 2986 ft 22 kts 211°
2026-04-24 05:29 48.30658 -114.25907 2987 ft 2 kts 164°
2026-04-24 05:30 48.30627 -114.25869 2988 ft 8 kts 131°
2026-04-24 05:30 48.30620 -114.25807 2986 ft 4 kts 77°
2026-04-24 05:30 48.30640 -114.25779 2986 ft 4 kts 37°
2026-04-24 05:30 48.30681 -114.25725 2985 ft 10 kts 42°
2026-04-24 05:31 48.30729 -114.25672 2985 ft 2 kts 36°
2026-04-24 05:31 48.30748 -114.25652 2985 ft 8 kts 35°
2026-04-24 05:31 48.30801 -114.25597 2985 ft 3 kts 33°
2026-04-24 05:31 48.30817 -114.25562 2985 ft 9 kts 68°
2026-04-24 05:32 48.30808 -114.25498 2985 ft 4 kts 122°
2026-04-24 05:32 48.30785 -114.25481 2985 ft 1 kts 170°
2026-04-24 05:32 48.30764 -114.25492 2985 ft 4 kts 201°
2026-04-24 05:32 48.30746 -114.25495 2985 ft 5 kts 170°
2026-04-24 05:33 48.30716 -114.25448 2985 ft 5 kts 125°
2026-04-24 05:33 48.30707 -114.25429 2985 ft 0 kts 124°
2026-04-24 05:33 48.30707 -114.25428 2985 ft 0 kts 124°